Home   Weather   Thunder Bay   Past weeks

Flag for Canada Past Weather in Thunder Bay, Ontario, Canada — Yesterday and Last 2 Weeks

Now
48 °F

Light rain. Fog.


Feels Like: 48 °F
Forecast: 45 / 55 °F
Wind: 2 mph from North

Location: Thunder Bay

Current Time: May 23, 2017 at 8:54:43 am

Latest Report: May 23, 2017 at 8:00 am


Visibility: 4 mi

Pressure: 29.89 "Hg

Humidity: 94%

Dew Point: 46 °F

Location of Thunder BayLocation

Past Weather in Thunder Bay — Graph

°F

Thunder Bay Temperature Yesterday

Maximum temperature yesterday: 57 °F (at 2:00 pm)
Minimum temperature yesterday: 43 °F (at 12:00 am)
Average temperature yesterday: 50 °F

High & Low Weather Summary for the Past Weeks

 TemperatureHumidityPressure
High63 °F (May 11, 5:00 pm)100% (May 10, 6:00 am)30.43 "Hg (May 10, 6:00 am)
Low23 °F (May 8, 7:00 am)24% (May 8, 3:00 pm)29.51 "Hg (May 17, 1:00 am)
Average46 °F73%29.94 "Hg
* Reported May 8 7:00 am — May 23 7:31 am, Thunder Bay. Weather by CustomWeather, © 2017

Note: Actual official high and low records may vary slightly from our data, if they occured in-between our weather recording intervals... More about our weather records

Advertising

Thunder Bay Weather History for the Previous 24 Hours

Scroll right to see more
 ConditionsComfort  
Time TempWeatherWind HumidityBarometerVisibility
7:31 am
Tue, May 23
48 °FDrizzle. Overcast.3 mph94%29.88 "Hg10 mi
7:00 am48 °FOvercast.6 mph87%29.87 "Hg20 mi
6:49 am48 °FMore clouds than sun.6 mph94%29.86 "Hg20 mi
6:00 am48 °FMostly cloudy.6 mph94%29.85 "Hg20 mi
5:00 am46 °FMostly cloudy.No wind100%29.85 "Hg15 mi
4:00 am46 °FOvercast.3 mph93%29.84 "Hg15 mi
3:00 am46 °FMostly cloudy.5 mph100%29.83 "Hg15 mi
2:00 am46 °FPartly cloudy.2 mph100%29.83 "Hg15 mi
1:00 am46 °FPartly cloudy.3 mph93%29.83 "Hg15 mi
12:00 am48 °FPassing clouds.3 mph94%29.82 "Hg15 mi
11:00 pm
Mon, May 22
52 °FPassing clouds.3 mph88%29.81 "Hg15 mi
10:00 pm52 °FPartly cloudy.3 mph94%29.80 "Hg20 mi
9:00 pm54 °FBroken clouds.2 mph77%29.79 "Hg20 mi
8:00 pm54 °FPartly sunny.3 mph77%29.78 "Hg20 mi
7:00 pm54 °FBroken clouds.6 mph82%29.77 "Hg20 mi
6:00 pm54 °FLight rain. Cloudy.2 mph88%29.76 "Hg10 mi
5:09 pm55 °FLight rain. Mostly cloudy.6 mph72%29.74 "Hg20 mi
4:00 pm57 °FMore clouds than sun.7 mph63%29.72 "Hg20 mi
3:00 pm57 °FMostly cloudy.7 mph63%29.70 "Hg20 mi
2:00 pm57 °FBroken clouds.10 mph63%29.70 "Hg20 mi
1:00 pm55 °FMore clouds than sun.9 mph67%29.70 "Hg20 mi
12:23 pm54 °FBroken clouds.9 mph72%29.70 "Hg20 mi
12:00 pm54 °FPartly sunny.9 mph72%29.70 "Hg20 mi
11:00 am50 °FPartly sunny.8 mph82%29.70 "Hg20 mi
10:00 am52 °FBroken clouds.12 mph82%29.70 "Hg20 mi
9:00 am48 °FBroken clouds.7 mph87%29.70 "Hg20 mi
8:00 am46 °FPartly sunny.6 mph93%29.70 "Hg20 mi
Weather by CustomWeather, © 2017

See weather overviewHow to use our weather pages